Vancouver, WA
on Sunday, November 4, 2012

Sunday
Previous Day Next Day
Daily Summary
 ActualAverageRecord
Temperature
Mean Temperature °F 49°F  
Max Temperature 68°F 57°F 70°F (1975)
Min Temperature 57°F 42°F 23°F (1935)
Degree Days
Heating Degree Days 2    
Month to date heating degree days 27  
Since 1 July heating degree days 346  
Cooling Degree Days 0    
Month to date cooling degree days 0  
Year to date cooling degree days 398  
Growing Degree Days12 (Base °F )  
Moisture
Dew Point 57°F   
Average Humidity 83    
Maximum Humidity 93    
Minimum Humidity 73    
Precipitation
Precipitation T in 0.17 in 1.22 in (1934)
Month to date precipitation 0.38 0.65  
Year to date precipitation 31.54 27.11  
Snow
Snow 0.00 in in in ()
Month to date snowfall 0.0  
Since 1 July snowfall 0.0  
Since 1 September snowfall 0.0  
Snow Depth 0.00 in   
Wind
Wind Speed 5 mph   
Max Wind Speed 10 mph   
Max Gust Speed 16 mph   
Visibility 10 miles   
Events Rain   

Key: T is trace of precipitation, MM is missing value
Source: NWS Daily Summary
Time(PST)TemperatureDew PointHumidity Pressure Visibility Wind DirectionWind SpeedGust SpeedPrecipitationEvents Conditions
12:53 AM 59.0°F 55.0°F 87% 30.19 in 10.0 miles SE 4.6 mph - N/A   Overcast
1:53 AM 57.9°F 55.9°F 93% 30.19 in 10.0 miles ESE 3.5 mph - N/A   Overcast
1:53 AM 57.9°F 55.0°F 90% 30.20 in 10.0 miles ESE 5.8 mph - N/A   Overcast
2:18 AM 57.2°F 55.4°F 94% 30.20 in 10.0 miles ESE 6.9 mph - 0.00 in   Overcast
2:53 AM 57.9°F 55.9°F 93% 30.20 in 10.0 miles SE 3.5 mph - 0.00 in   Overcast
3:53 AM 57.9°F 55.9°F 93% 30.20 in 10.0 miles ESE 5.8 mph - 0.00 in   Overcast
4:53 AM 57.9°F 55.9°F 93% 30.21 in 10.0 miles ESE 6.9 mph - N/A   Overcast
5:53 AM 57.9°F 55.9°F 93% 30.22 in 9.0 miles East 6.9 mph - 0.00 in Rain Light Rain
6:53 AM 57.9°F 55.9°F 93% 30.24 in 10.0 miles ESE 6.9 mph - 0.00 in   Overcast
7:53 AM 59.0°F 55.9°F 90% 30.26 in 10.0 miles SE 6.9 mph - N/A   Overcast
8:53 AM 60.1°F 55.9°F 86% 30.27 in 10.0 miles East 5.8 mph - N/A   Overcast
9:53 AM 60.1°F 57.0°F 90% 30.28 in 10.0 miles ESE 6.9 mph - N/A   Overcast
10:53 AM 61.0°F 57.0°F 87% 30.30 in 10.0 miles ESE 8.1 mph - N/A   Overcast
11:53 AM 64.0°F 57.0°F 78% 30.29 in 10.0 miles East 8.1 mph - N/A   Overcast
12:37 PM 66.2°F 57.2°F 73% 30.29 in 10.0 miles East 6.9 mph - N/A   Overcast
12:53 PM 66.0°F 57.0°F 73% 30.30 in 10.0 miles East 6.9 mph - N/A   Overcast
1:16 PM 66.2°F 57.2°F 73% 30.29 in 10.0 miles ESE 6.9 mph - N/A   Scattered Clouds
1:53 PM 66.9°F 57.9°F 73% 30.30 in 10.0 miles ESE 5.8 mph - N/A   Overcast
2:53 PM 66.0°F 57.9°F 75% 30.30 in 10.0 miles ESE 4.6 mph - N/A   Overcast
3:53 PM 64.9°F 57.9°F 78% 30.30 in 10.0 miles ESE 3.5 mph - N/A   Overcast
4:53 PM 64.0°F 57.9°F 80% 30.29 in 10.0 miles ESE 5.8 mph - N/A   Overcast
5:53 PM 63.0°F 59.0°F 87% 30.30 in 10.0 miles East 3.5 mph - N/A   Overcast
6:53 PM 62.1°F 57.9°F 86% 30.31 in 10.0 miles East 4.6 mph - N/A   Partly Cloudy
7:53 PM 61.0°F 57.9°F 90% 30.31 in 10.0 miles ESE 4.6 mph - N/A   Mostly Cloudy
9:53 PM 61.0°F 57.9°F 90% 30.32 in 10.0 miles East 3.5 mph - N/A   Overcast
10:53 PM 62.1°F 57.9°F 86% 30.31 in 10.0 miles East 3.5 mph - N/A   Overcast
Moon Phase
Nov. 04 Nov. 06 Nov. 13 Nov. 20 Nov. 28
Sunrise:06:55 AM (PST) Moon Rise:09:33 PM (PST)11/4
Sunset:04:52 PM (PST) Moon Set:11:45 AM (PST)11/4

Copyright © 2014 The Weather Underground, Inc.